| time (UTC) | temp F | wind direction | speed knots | gust knots | rain 1hr in | rain 24hr in | rain mn in | humidity % | barometer mb |
| 20260502224517 | 86 | 247 | 0.0 | 3.5 | 0.00 | 0.00 | 0.00 | 25 | 1012.3 |
| 20260502223033 | 86 | 109 | 0.9 | 5.2 | 0.00 | 0.00 | 0.00 | 26 | 1012.5 |
| 20260502221503 | 86 | 115 | 0.0 | 2.6 | 0.00 | 0.00 | 0.00 | 28 | 1012.8 |
| 20260502214511 | 85 | 311 | 0.0 | 2.6 | 0.00 | 0.00 | 0.00 | 28 | 1013.1 |
| 20260502213006 | 84 | 327 | 0.0 | 1.7 | 0.00 | 0.00 | 0.00 | 30 | 1013.3 |
| 20260502211510 | 84 | 301 | 0.9 | 3.5 | 0.00 | 0.00 | 0.00 | 31 | 1013.4 |
| 20260502210014 | 83 | 5 | 0.9 | 4.3 | 0.00 | 0.00 | 0.00 | 33 | 1013.6 |
| 20260502204508 | 82 | 301 | 0.9 | 5.2 | 0.00 | 0.00 | 0.00 | 34 | 1013.7 |
| 20260502203012 | 81 | 39 | 0.9 | 2.6 | 0.00 | 0.00 | 0.00 | 31 | 1013.9 |
| 20260502201510 | 81 | 223 | 0.0 | 1.7 | 0.00 | 0.00 | 0.00 | 38 | 1014.1 |
| 20260502200008 | 80 | 329 | 0.9 | 3.5 | 0.00 | 0.00 | 0.00 | 39 | 1014.4 |
| 20260502194512 | 79 | 329 | 0.0 | 2.6 | 0.00 | 0.00 | 0.00 | 38 | 1014.6 |
| 20260502193014 | 78 | 300 | 0.0 | 2.6 | 0.00 | 0.00 | 0.00 | 42 | 1014.8 |
| 20260502191516 | 77 | 337 | 0.9 | 2.6 | 0.00 | 0.00 | 0.00 | 39 | 1014.8 |
| 20260502190023 | 77 | 360 | 0.0 | 2.6 | 0.00 | 0.00 | 0.00 | 43 | 1015.1 |
| 20260502184523 | 76 | 157 | 0.0 | 2.6 | 0.00 | 0.00 | 0.00 | 43 | 1015.1 |
| 20260502183016 | 75 | 306 | 1.7 | 6.1 | 0.00 | 0.00 | 0.00 | 40 | 1015.3 |
| 20260502181516 | 74 | 294 | 0.0 | 4.3 | 0.00 | 0.00 | 0.00 | 43 | 1015.3 |
| 20260502163037 | 65 | 302 | 0.0 | 2.6 | 0.00 | 0.00 | 0.00 | 54 | 1015.1 |
| 20260502161512 | 64 | 299 | 0.0 | 1.7 | 0.00 | 0.00 | 0.00 | 56 | 1015.0 |
| 20260502151503 | 59 | 292 | 0.0 | 0.9 | 0.00 | 0.00 | 0.00 | 64 | 1015.0 |
| 20260502123005 | 55 | 226 | 0.0 | 0.9 | 0.00 | 0.00 | 0.00 | 67 | 1014.3 |
| 20260502121509 | 55 | 226 | 0.0 | 1.7 | 0.00 | 0.00 | 0.00 | 67 | 1014.3 |
| 20260502114520 | 56 | 226 | 0.0 | 0.0 | 0.00 | 0.00 | 0.00 | 63 | 1014.2 |
| 20260502113016 | 56 | 226 | 0.0 | 0.0 | 0.00 | 0.00 | 0.00 | 63 | 1014.2 |
| 20260502111511 | 57 | 226 | 0.0 | 1.7 | 0.00 | 0.00 | 0.00 | 62 | 1014.2 |
| 20260502104516 | 57 | 226 | 0.0 | 0.0 | 0.00 | 0.00 | 0.00 | 61 | 1014.1 |
| 20260502103018 | 57 | 226 | 0.0 | 2.6 | 0.00 | 0.00 | 0.00 | 61 | 1014.2 |
| 20260502101520 | 57 | 184 | 0.0 | 0.0 | 0.00 | 0.00 | 0.00 | 59 | 1014.1 |
| 20260502091511 | 58 | 202 | 0.0 | 2.6 | 0.00 | 0.00 | 0.00 | 58 | 1014.1 |
| 20260502071516 | 60 | 214 | 0.0 | 3.5 | 0.00 | 0.00 | 0.00 | 56 | 1014.0 |
| 20260502070004 | 61 | 70 | 0.0 | 0.0 | 0.00 | 0.00 | 0.00 | 55 | 1014.1 |
| 20260502064504 | 61 | 70 | 0.0 | 0.0 | 0.00 | 0.00 | 0.00 | 54 | 1014.0 |
| 20260502063012 | 62 | 70 | 0.0 | 0.0 | 0.00 | 0.00 | 0.00 | 53 | 1014.1 |
| 20260502061519 | 62 | 70 | 0.0 | 0.0 | 0.00 | 0.00 | 0.00 | 52 | 1014.0 |
| 20260502060017 | 63 | 70 | 0.0 | 0.0 | 0.00 | 0.00 | 0.00 | 52 | 1013.9 |
| 20260502054507 | 63 | 70 | 0.0 | 0.0 | 0.00 | 0.00 | 0.00 | 50 | 1013.8 |
| 20260502053008 | 63 | 70 | 0.0 | 0.0 | 0.00 | 0.00 | 0.00 | 50 | 1013.8 |
| 20260502051505 | 64 | 70 | 0.0 | 0.0 | 0.00 | 0.00 | 0.00 | 48 | 1013.8 |
| 20260502050020 | 66 | 70 | 0.0 | 0.0 | 0.00 | 0.00 | 0.00 | 47 | 1013.8 |
| 20260502044524 | 67 | 70 | 0.0 | 0.0 | 0.00 | 0.00 | 0.00 | 46 | 1013.8 |
| 20260502043009 | 68 | 70 | 0.0 | 0.0 | 0.00 | 0.00 | 0.00 | 45 | 1013.8 |
| 20260502041518 | 69 | 70 | 0.0 | 0.0 | 0.00 | 0.00 | 0.00 | 43 | 1013.8 |
| 20260502040012 | 69 | 70 | 0.0 | 0.0 | 0.00 | 0.00 | 0.00 | 43 | 1013.6 |
| 20260502034509 | 70 | 70 | 0.0 | 0.0 | 0.00 | 0.00 | 0.00 | 42 | 1013.5 |
| 20260502033027 | 71 | 70 | 0.0 | 0.0 | 0.00 | 0.00 | 0.00 | 40 | 1013.4 |
| 20260502031512 | 73 | 70 | 0.0 | 0.0 | 0.00 | 0.00 | 0.00 | 37 | 1013.3 |
| 20260502030014 | 74 | 70 | 0.0 | 0.0 | 0.00 | 0.00 | 0.00 | 36 | 1013.1 |
| 20260502024525 | 75 | 70 | 0.0 | 0.0 | 0.00 | 0.00 | 0.00 | 33 | 1013.2 |
| 20260502023017 | 76 | 70 | 0.0 | 1.7 | 0.00 | 0.00 | 0.00 | 32 | 1013.0 |
| 20260502020014 | 77 | 330 | 0.0 | 1.7 | 0.00 | 0.00 | 0.00 | 32 | 1013.2 |
| 20260502014517 | 78 | 332 | 0.0 | 1.7 | 0.00 | 0.00 | 0.00 | 31 | 1013.4 |
| 20260502013023 | 79 | 293 | 0.0 | 2.6 | 0.00 | 0.00 | 0.00 | 30 | 1013.4 |
| 20260502011521 | 79 | 335 | 0.0 | 1.7 | 0.00 | 0.00 | 0.00 | 29 | 1013.5 |
| 20260502010010 | 80 | 304 | 0.0 | 3.5 | 0.00 | 0.00 | 0.00 | 28 | 1013.6 |
| 20260502004508 | 81 | 306 | 0.0 | 2.6 | 0.00 | 0.00 | 0.00 | 27 | 1013.6 |
| 20260502003003 | 82 | 325 | 0.0 | 1.7 | 0.00 | 0.00 | 0.00 | 24 | 1013.7 |
| 20260502001508 | 83 | 278 | 0.0 | 2.6 | 0.00 | 0.00 | 0.00 | 24 | 1013.8 |
| 20260502000015 | 83 | 288 | 0.0 | 1.7 | 0.00 | 0.00 | 0.00 | 25 | 1013.9 |
| 20260501234503 | 83 | 273 | 0.0 | 2.6 | 0.00 | 0.00 | 0.00 | 25 | 1014.0 |
| 20260501231505 | 83 | 279 | 0.0 | 2.6 | 0.00 | 0.00 | 0.00 | 24 | 1014.3 |
| 20260501230002 | 83 | 89 | 0.9 | 4.3 | 0.00 | 0.00 | 0.00 | 26 | 1014.5 |